This is the latest recevied weather packets stored in our database for station/object W7TJC. If no packets are shown the sender has not sent any weather packets the latest 10 day(s).
| Time | Temp. | Humidity | Pressure | Rain* | Wind** | Luminosity | Snow |
|---|---|---|---|---|---|---|---|
| 1777647059 | 11.67° C | 85% | 1018.5 hPa | 0 mm | - | 35 W/m² | - |
| 1777646755 | 11.67° C | 84% | 1018.3 hPa | 0 mm | - | 37 W/m² | - |
| 1777646450 | 11.11° C | 85% | 1018.4 hPa | 0 mm | - | 18 W/m² | - |
| 1777646147 | 10.56° C | 87% | 1018.5 hPa | 0 mm | - | 46 W/m² | - |
| 1777645844 | 10° C | 90% | 1018.3 hPa | 0 mm | - | 23 W/m² | - |
| 1777645541 | 10° C | 90% | 1018.2 hPa | 0 mm | - | 12 W/m² | - |
| 1777645237 | 9.44° C | 90% | 1018.3 hPa | 0 mm | - | 11 W/m² | - |
| 1777644933 | 9.44° C | 90% | 1018 hPa | 0 mm | - | 10 W/m² | - |
| 1777644631 | 9.44° C | 90% | 1018.2 hPa | 0 mm | - | 9 W/m² | - |
| 1777644327 | 9.44° C | 90% | 1018.3 hPa | 0 mm | - | 8 W/m² | - |
| 1777644023 | 9.44° C | 90% | 1018.1 hPa | 0 mm | - | 6 W/m² | - |
| 1777643720 | 8.89° C | 90% | 1018.2 hPa | 0 mm | - | 6 W/m² | - |
| 1777643418 | 8.89° C | 90% | 1018.2 hPa | 0 mm | - | 5 W/m² | - |
| 1777643114 | 8.89° C | 90% | 1018.1 hPa | 0 mm | - | 4 W/m² | - |
| 1777642811 | 8.89° C | 90% | 1018 hPa | 0 mm | - | 4 W/m² | - |
| 1777642508 | 8.89° C | 90% | 1017.7 hPa | 0 mm | - | 3 W/m² | - |
| 1777642204 | 8.89° C | 90% | 1017.8 hPa | 0 mm | - | 3 W/m² | - |
| 1777641902 | 8.89° C | 90% | 1017.7 hPa | 0 mm | - | 2 W/m² | - |
| 1777641602 | 8.89° C | 90% | 1017.9 hPa | 0 mm | - | 1 W/m² | - |
| 1777641301 | 8.89° C | 90% | 1017.7 hPa | 0 mm | - | 1 W/m² | - |
| 1777640998 | 8.89° C | 89% | 1017.9 hPa | 0 mm | - | 0 W/m² | - |
| 1777640695 | 9.44° C | 89% | 1017.7 hPa | 0 mm | - | 0 W/m² | - |
| 1777640391 | 9.44° C | 89% | 1017.6 hPa | 0 mm | - | 0 W/m² | - |
| 1777640088 | 9.44° C | 89% | 1017.7 hPa | 0 mm | - | 0 W/m² | - |
| 1777639785 | 9.44° C | 89% | 1017.6 hPa | 0 mm | - | 0 W/m² | - |
* Rain latest hour (hover to see other rain measurements)
** Current wind speed in m/s (hover to see current wind gust speed)